Home   Weather   Charlotte   Past weeks

Flag for USA Past Weather in Charlotte, North Carolina, USA — Yesterday and Last 2 Weeks

Now
54 °F

Mostly cloudy.


Feels Like: 52 °F
Forecast: 53 / 68 °F
Wind: 8 mph from Southeast

Location: Charlotte / Douglas International Airport

Current Time: Jan 20, 2017 at 3:13:17 am

Latest Report: Jan 20, 2017 at 1:52 am


Visibility: 10 mi

Pressure: 29.91 "Hg

Humidity: 59%

Dew Point: 40 °F

Location of CharlotteLocation

Past Weather in Charlotte — Graph

°F

Charlotte Temperature Yesterday

Maximum temperature yesterday: 64 °F (at 2:52 pm)
Minimum temperature yesterday: 36 °F (at 6:52 am)
Average temperature yesterday: 54 °F

High & Low Weather Summary for the Past Weeks

 TemperatureHumidityPressure
High77 °F (Jan 13, 1:52 pm)97% (Jan 17, 3:00 am)30.80 "Hg (Jan 17, 3:00 am)
Low16 °F (Jan 8, 1:52 am)12% (Jan 18, 3:52 pm)29.85 "Hg (Jan 5, 11:52 pm)
Average46 °F65%30.28 "Hg
* Reported Jan 5 1:52 am — Jan 20 1:52 am, Charlotte, Weather by CustomWeather, © 2017

Note: Actual official high and low records may vary slightly from our data, if they occured in-between our weather recording intervals... More about our weather records

Advertising

Charlotte Weather History for the Previous 24 Hours

Scroll right to see more
 ConditionsComfort  
Time TempWeatherWind HumidityBarometerVisibility
1:52 am
Fri, Jan 20
54 °FMostly cloudy.8 mph59%29.91 "Hg10 mi
12:52 am55 °FMostly cloudy.9 mph57%29.93 "Hg10 mi
11:52 pm
Thu, Jan 19
56 °FPartly cloudy.8 mph53%29.94 "Hg10 mi
10:52 pm58 °FPartly cloudy.7 mph50%29.97 "Hg10 mi
9:52 pm54 °FPassing clouds.7 mph57%29.97 "Hg10 mi
8:52 pm59 °FPassing clouds.8 mph46%29.96 "Hg10 mi
7:52 pm59 °FPassing clouds.6 mph46%29.97 "Hg10 mi
6:52 pm61 °FPassing clouds.6 mph42%29.99 "Hg10 mi
5:52 pm61 °FPassing clouds.5 mph41%29.98 "Hg10 mi
4:52 pm63 °FPartly sunny.7 mph37%29.98 "Hg10 mi
3:52 pm64 °FBroken clouds.No wind35%29.99 "Hg10 mi
2:52 pm64 °FBroken clouds.5 mph35%30.01 "Hg10 mi
1:52 pm62 °FPartly sunny.No wind39%30.03 "Hg10 mi
12:52 pm61 °FPartly sunny.5 mph41%30.05 "Hg10 mi
11:52 am58 °FBroken clouds.No wind46%30.09 "Hg10 mi
10:52 am55 °FPartly sunny.5 mph51%30.13 "Hg10 mi
9:52 am52 °FPartly sunny.9 mph55%30.12 "Hg10 mi
8:52 am50 °FPartly sunny.5 mph63%30.10 "Hg10 mi
7:52 am45 °FPartly sunny.5 mph68%30.08 "Hg10 mi
6:52 am36 °FClear.No wind85%30.09 "Hg10 mi
5:52 am45 °FClear.5 mph71%30.06 "Hg10 mi
4:52 am44 °FClear.8 mph73%30.05 "Hg10 mi
3:52 am44 °FClear.3 mph73%30.05 "Hg10 mi
Weather by CustomWeather, © 2017

See weather overviewHow to use our weather pages